Theta_e
368 367 366 366 368 368 368 368 367 367 366 365 364 364 364 362 361 360 361 359 358 357 356 354 352 351 349 349 347 346 347 347 348 348 348 348 348 347 346 345 344 343 345 344 343 343 343 342 344 346 349 345 344 343 342 345 344 343 343 342 341 341 339 336 332 332 336 341 341 339 340 341 336 342 340 340 339 341 342 340 340 338 338 338 339
368 367 367 368 367 368 368 368 368 366 365 365 363 363 364 363 363 363 360 360 359 356 356 355 353 352 349 349 348 347 348 348 348 347 347 347 346 346 346 345 344 343 343 342 344 343 344 343 342 343 345 343 343 342 342 341 340 339 341 340 339 339 342 337 335 332 329 336 338 341 340 341 336 342 337 337 338 340 339 339 340 339 338 338 337
367 368 367 367 367 368 369 368 367 366 364 364 361 361 363 365 365 363 360 359 359 357 356 354 353 352 349 348 348 348 348 348 348 347 346 346 345 345 345 344 342 342 341 341 341 343 343 342 341 342 343 342 342 342 341 342 340 339 338 338 338 340 342 341 336 331 330 331 336 335 336 339 337 337 339 340 340 341 339 338 337 338 338 338 337
365 368 368 367 367 368 369 369 366 364 361 362 361 360 360 364 365 364 361 359 358 358 357 354 353 352 349 348 348 347 347 347 347 347 347 346 346 345 345 345 343 343 342 341 341 341 341 341 340 339 341 341 341 341 341 342 342 341 340 340 341 340 341 342 341 337 335 332 333 333 335 335 337 339 339 339 336 336 337 338 339 338 338 339 337
363 365 366 364 365 367 368 368 366 365 363 362 361 360 360 362 364 363 361 359 359 358 356 354 353 352 349 347 347 347 347 347 345 345 347 347 346 345 344 344 344 343 342 342 343 341 341 340 341 341 341 340 341 341 341 340 340 340 340 341 341 341 340 341 341 339 334 331 332 335 337 336 337 337 339 336 337 337 339 337 337 337 338 338 337
363 364 363 364 366 367 367 366 365 365 364 362 361 360 361 363 364 363 363 360 360 358 356 354 352 351 349 348 347 347 348 347 346 345 345 346 347 345 344 343 342 342 342 342 342 343 342 342 341 341 340 339 339 339 340 340 341 341 340 340 341 342 342 341 340 338 337 335 334 331 333 333 334 335 336 336 334 333 334 336 337 337 336 335 334
362 364 366 364 367 367 367 366 366 366 365 364 363 363 360 360 361 361 362 360 359 357 355 354 352 351 350 348 347 347 348 348 347 346 346 346 346 345 343 342 342 342 342 342 342 342 342 342 342 342 341 340 339 339 340 341 339 338 340 340 341 341 339 339 339 337 335 334 334 334 333 335 335 332 336 338 337 335 332 332 331 332 334 334 333
362 365 367 366 367 367 367 367 366 367 366 367 366 364 363 363 363 364 363 360 358 357 355 354 353 352 351 348 348 348 348 346 346 346 346 346 345 343 342 341 341 341 341 342 341 340 341 341 340 341 341 342 341 341 340 340 341 340 342 342 342 341 338 338 337 335 334 332 331 329 330 329 331 333 335 334 333 334 336 333 328 328 331 335 335
361 364 367 367 368 369 370 369 368 367 368 368 367 366 366 366 366 366 364 361 360 359 358 356 353 351 351 347 347 349 347 344 345 346 344 344 343 342 341 340 340 339 340 340 341 340 340 340 339 339 342 345 344 343 343 343 340 339 340 342 341 339 337 335 335 334 332 331 329 330 329 328 329 329 328 329 328 328 333 333 329 330 332 330 331
362 365 366 368 370 371 371 371 369 369 369 369 368 368 367 368 366 365 365 363 362 361 359 358 353 351 349 347 349 350 346 345 341 333 337 343 342 342 342 340 340 339 339 339 339 340 339 339 340 344 345 348 345 342 339 341 341 341 343 343 342 339 337 335 332 331 330 328 327 327 325 324 325 327 327 328 330 331 331 331 328 329 329 328 329
363 365 367 370 372 372 372 372 371 370 371 371 370 369 369 369 367 365 366 364 362 362 361 357 352 351 348 347 347 347 346 345 331 329 333 337 342 342 341 340 340 340 339 340 338 339 340 344 342 343 344 346 346 345 344 342 342 340 338 338 340 338 334 332 331 331 330 328 328 327 325 324 326 328 328 328 329 331 330 329 328 327 325 323 320
363 365 369 372 373 373 372 373 372 371 371 371 371 370 370 369 367 366 365 365 363 362 360 358 355 351 349 348 347 346 347 338 326 329 331 332 338 342 341 340 340 340 340 339 342 344 342 340 340 340 341 343 343 344 344 340 337 336 336 334 333 332 333 334 331 330 329 327 326 326 325 325 327 328 328 327 329 329 329 328 327 326 324 323 322
365 366 370 372 373 374 373 373 371 370 370 371 370 370 369 367 365 364 362 364 364 361 363 358 355 351 349 347 345 344 347 328 326 328 329 328 332 340 341 341 340 342 345 344 341 343 342 340 338 340 343 342 343 347 345 342 337 335 334 334 332 329 326 326 327 333 332 329 328 326 326 327 327 329 332 331 331 326 327 326 326 326 324 323 323
367 367 371 372 374 374 373 371 370 370 370 370 369 368 366 365 365 364 364 364 362 360 359 358 356 352 349 347 345 345 343 324 324 324 325 326 329 335 341 341 343 342 341 340 338 337 340 341 340 339 338 339 340 344 344 344 344 342 340 339 337 336 330 325 323 323 327 331 329 327 330 332 328 330 333 333 329 326 325 323 324 322 322 321 323
369 368 370 372 374 373 372 371 370 369 369 368 367 366 366 365 364 364 362 361 361 360 357 355 353 351 348 348 345 340 339 323 321 322 322 323 325 332 341 340 339 339 340 339 338 336 338 347 345 336 337 338 340 343 343 342 341 339 338 336 336 335 334 332 333 334 331 330 329 330 330 332 333 333 333 333 329 327 326 324 323 322 322 323 323
369 369 369 372 373 372 371 370 369 368 367 367 366 365 364 363 362 362 360 359 359 360 356 354 350 348 347 345 341 339 338 320 320 321 320 321 324 335 338 338 336 336 337 338 338 338 344 346 343 338 336 340 339 337 343 343 340 337 336 335 334 334 333 334 328 329 335 335 333 332 332 333 329 333 331 328 327 328 327 325 324 323 321 318 316
369 370 370 372 372 371 370 368 367 367 366 365 364 363 362 362 362 362 358 356 355 355 354 351 350 345 344 343 339 337 336 322 318 317 318 318 324 335 336 333 333 333 334 338 338 338 347 344 342 341 341 341 335 328 333 342 339 336 335 333 332 331 329 332 327 323 324 323 322 321 319 317 316 315 314 314 321 324 324 321 319 320 317 315 317
370 371 371 372 371 370 369 367 366 364 364 362 362 361 361 361 361 361 357 353 352 350 348 347 347 347 344 341 337 338 335 321 314 314 315 316 324 333 332 332 332 334 336 337 339 346 345 347 344 342 342 340 327 323 326 334 334 335 332 331 329 329 328 329 328 337 323 321 319 318 317 318 318 317 316 315 314 316 320 317 320 320 318 317 314
371 370 371 372 371 369 368 366 366 363 361 361 359 359 358 359 358 357 356 355 353 349 346 343 342 343 340 339 337 335 335 324 312 314 314 314 323 331 331 332 333 335 336 336 343 345 344 344 345 343 342 336 316 318 321 331 334 333 333 330 327 326 328 331 330 330 332 331 332 331 329 324 325 325 327 320 318 319 322 322 323 321 319 319 318
372 372 370 370 369 367 366 364 363 361 361 360 360 358 357 355 355 353 353 351 349 346 343 342 340 338 337 337 335 335 334 336 322 312 312 312 316 330 333 333 333 335 337 338 344 341 342 342 337 327 320 316 314 314 315 319 330 333 332 328 325 326 327 326 330 329 329 327 327 328 328 329 328 328 329 330 331 330 325 325 324 323 321 320 320
372 371 369 367 366 365 365 364 361 360 360 359 357 355 354 353 352 350 347 347 347 346 343 341 340 339 337 335 335 334 335 337 330 311 311 312 314 321 333 335 337 338 338 339 341 340 339 340 340 325 314 313 309 308 307 310 318 327 329 327 326 320 317 325 327 328 327 327 327 327 326 327 327 326 324 323 322 323 326 325 327 326 324 317 313
371 370 367 365 364 363 362 362 361 359 359 358 355 354 354 353 349 348 346 346 345 344 342 342 340 338 339 338 338 336 334 331 339 316 313 311 312 314 332 338 339 340 339 339 340 339 342 341 340 329 314 311 308 304 304 306 310 320 325 307 308 314 320 323 324 324 324 324 323 323 323 324 322 322 321 322 321 322 319 319 319 319 318 316 314
368 366 364 362 361 361 362 361 358 358 357 355 353 352 352 349 348 347 346 345 344 342 341 340 338 337 337 338 339 343 346 340 333 326 313 310 309 311 318 330 325 344 339 340 340 342 344 341 329 316 311 305 302 303 303 306 308 316 309 309 310 310 316 322 324 323 323 322 322 322 323 323 321 320 321 320 319 322 320 319 318 317 318 317 318
364 360 359 359 359 358 358 357 357 357 355 354 352 350 348 347 346 344 344 343 342 340 340 339 337 336 336 339 343 344 344 340 330 327 322 311 309 308 310 315 317 338 342 341 341 341 343 334 318 305 301 298 299 302 304 306 315 307 305 309 312 314 320 322 321 322 322 320 321 321 322 321 321 322 321 321 320 321 320 318 318 318 318 318 319
358 356 356 356 356 356 356 356 354 355 354 353 349 348 347 345 343 343 342 342 341 339 339 338 338 338 340 340 340 341 341 339 333 325 320 313 310 308 310 314 316 319 337 336 333 326 315 305 300 300 300 299 302 304 306 306 306 305 306 308 315 320 321 321 321 322 322 321 321 321 321 321 319 320 324 323 320 318 318 318 318 318 318 318 318
356 355 354 354 354 354 352 352 352 352 352 351 348 347 345 342 341 341 341 340 341 340 339 338 338 339 340 340 339 339 340 337 334 327 322 318 315 310 311 315 320 320 322 320 311 307 306 305 304 304 305 308 311 315 319 319 309 310 311 312 318 320 320 320 320 320 320 321 321 319 317 317 318 323 321 319 317 316 317 317 316 314 314 314 313
353 353 353 351 351 351 350 349 348 348 347 347 346 345 345 343 342 340 340 340 340 340 339 338 339 338 339 339 339 338 339 336 333 331 332 329 325 320 322 322 318 318 322 318 315 315 311 314 315 312 314 313 317 321 323 320 314 313 316 317 319 320 321 321 321 322 321 319 318 318 319 318 321 320 317 317 317 319 318 317 313 311 313 313 311
351 350 350 350 349 348 347 348 346 345 346 346 344 343 343 342 342 341 340 341 340 340 339 340 339 338 337 338 339 337 336 337 334 332 331 330 329 328 330 329 327 329 326 324 324 321 319 318 314 319 322 320 318 321 322 324 323 321 320 320 320 321 322 323 323 323 322 322 321 321 320 323 319 316 315 314 313 313 316 315 314 313 313 311 309
349 347 346 346 345 346 346 345 344 343 337 328 319 315 319 338 343 331 323 322 329 340 341 341 341 340 340 340 339 336 336 336 337 324 332 321 329 330 331 331 331 330 327 320 329 328 326 323 322 322 323 321 321 320 320 321 322 323 323 322 322 322 321 320 320 321 321 320 319 321 318 317 315 315 313 312 313 314 315 315 316 313 311 311 309
346 345 346 344 344 343 343 342 343 341 337 330 322 315 306 298 310 334 326 314 306 302 318 340 341 339 340 343 339 338 337 340 316 311 309 309 311 314 317 316 316 324 319 313 325 328 327 325 324 323 323 323 322 322 322 322 322 322 322 320 322 321 322 322 321 320 320 324 320 319 316 316 312 312 312 310 311 313 314 311 310 312 312 310 308
344 343 343 342 341 341 340 341 343 345 340 335 332 326 321 313 297 296 304 306 302 298 297 299 306 319 341 335 317 301 306 303 304 305 305 305 304 303 304 306 309 311 310 322 325 325 327 325 325 324 325 322 323 322 323 323 322 320 321 321 321 320 318 319 321 318 315 315 318 318 315 314 313 311 308 309 310 310 309 311 312 313 310 309 307
344 341 341 341 342 342 341 343 343 342 340 339 336 333 329 323 316 300 295 298 298 295 295 296 300 311 317 321 319 316 304 299 299 299 298 297 296 295 295 297 298 302 305 313 330 326 326 326 324 322 322 321 321 322 319 319 326 322 321 320 323 325 321 313 317 317 318 317 317 315 316 314 310 309 309 309 309 308 308 309 309 309 309 309 309
342 341 342 342 342 344 342 343 342 341 339 338 337 337 334 330 325 318 311 297 295 295 295 295 295 296 299 305 311 310 303 298 297 297 296 295 295 295 294 295 298 301 309 323 326 325 326 324 322 324 322 321 321 323 327 319 319 319 320 322 318 321 317 314 318 318 317 318 316 312 311 311 309 310 310 309 307 307 308 308 309 309 309 308 308
345 342 340 341 343 344 342 342 340 341 340 340 339 338 338 336 333 325 321 319 317 308 300 296 295 296 294 294 296 296 295 296 296 295 295 295 295 297 300 303 293 296 311 328 325 325 325 322 321 323 323 323 321 320 323 324 322 320 320 319 323 323 327 322 321 318 317 316 315 313 312 308 309 309 307 307 308 308 307 307 307 308 308 307 306
344 345 346 345 344 342 342 342 340 339 339 340 339 338 338 338 337 331 328 326 326 324 322 316 301 294 305 298 293 293 294 294 295 295 295 296 297 297 302 318 320 320 321 322 323 323 323 323 322 324 324 321 321 320 322 323 325 322 319 317 316 317 318 316 314 314 314 314 312 312 309 308 307 307 307 308 308 307 307 307 306 307 306 306 306
343 341 342 343 342 343 341 341 340 340 339 339 340 338 337 337 335 334 332 332 331 328 323 317 309 300 295 292 292 292 292 293 294 295 295 296 296 303 323 324 323 322 321 322 322 323 323 322 323 327 323 323 322 321 321 320 323 322 318 318 316 314 313 312 313 313 310 309 307 307 304 306 308 308 308 307 308 306 305 306 306 306 306 306 307
340 340 340 342 342 339 339 341 341 340 336 337 338 338 338 336 335 334 333 333 331 326 319 315 314 312 309 305 297 293 292 293 293 293 294 295 294 308 323 324 324 323 321 321 321 322 324 327 326 325 325 325 325 322 320 319 321 320 317 321 320 315 315 315 317 314 311 308 306 306 307 307 310 310 307 306 306 306 305 306 305 306 306 307 307
341 340 341 343 343 343 342 340 338 333 337 338 340 338 336 335 334 333 332 333 327 323 320 319 318 318 316 312 310 307 300 295 295 298 298 299 309 317 323 326 326 325 322 322 323 324 326 328 323 324 322 324 322 319 316 317 318 319 316 315 319 319 314 315 317 314 312 309 307 309 311 311 310 308 309 306 305 305 305 305 304 304 306 307 306
344 333 330 332 334 339 337 337 336 336 336 335 336 335 333 333 333 333 333 331 328 326 324 322 323 322 318 315 315 311 310 314 316 316 316 317 318 319 320 322 324 325 326 324 324 325 325 324 324 325 324 323 323 320 321 320 319 317 317 315 313 313 313 311 311 316 312 309 310 315 311 309 310 311 309 305 304 305 304 304 305 305 304 305 305
339 339 334 331 335 336 337 336 335 335 334 335 334 335 333 333 332 332 332 331 330 329 326 325 326 323 319 317 315 315 317 318 318 318 318 317 318 318 321 321 323 324 327 325 325 321 323 325 326 325 325 321 323 321 320 319 317 319 318 312 311 313 310 309 308 309 310 314 314 313 310 311 312 309 306 306 305 305 304 305 305 305 306 306 305
339 338 338 331 332 338 339 335 334 334 333 335 335 335 334 334 334 333 332 330 330 329 329 329 329 323 320 316 308 310 321 320 321 320 320 319 319 319 320 322 322 324 323 324 325 324 324 325 325 327 323 318 319 320 319 316 313 312 312 313 311 310 308 309 309 308 308 314 313 310 311 312 309 306 304 305 304 304 306 306 305 305 306 305 305
337 334 336 335 341 339 337 336 334 336 337 337 337 335 334 333 334 333 331 332 329 328 327 329 328 325 314 304 303 302 321 323 323 322 321 320 320 321 322 324 328 328 324 324 326 325 326 324 322 323 324 320 318 318 319 316 316 314 313 309 308 307 306 306 308 310 310 311 310 311 309 307 307 307 306 304 305 306 305 304 304 306 306 305 305
337 335 334 336 337 336 336 334 338 337 336 335 333 334 335 334 333 331 331 330 329 327 328 328 326 322 315 305 306 303 319 324 323 323 322 322 323 323 323 323 323 324 329 325 323 326 322 321 321 322 320 321 321 320 316 313 312 309 307 308 308 306 306 306 306 307 309 309 307 307 307 305 306 306 305 305 305 305 304 305 306 306 305 305 305
338 336 337 335 335 336 336 334 333 334 337 333 332 332 331 332 332 331 328 328 327 327 328 327 324 321 318 311 308 311 319 322 324 325 326 323 323 322 322 323 323 323 322 325 327 325 322 320 317 314 316 319 320 318 315 311 313 311 310 310 306 305 304 305 305 309 306 305 305 305 305 306 306 305 305 306 305 305 304 305 306 305 305 304 304
338 338 336 335 334 332 331 334 331 332 331 331 333 331 330 330 328 328 327 326 327 328 327 326 324 322 319 318 317 317 320 321 322 323 325 323 323 323 322 323 323 324 321 321 321 319 320 319 316 317 316 320 319 319 316 313 310 310 311 311 307 304 307 307 306 305 306 306 305 305 304 304 305 304 304 305 305 305 304 305 305 307 305 304 304
337 335 335 332 332 331 329 330 330 330 330 329 328 328 326 326 327 327 326 328 328 326 325 325 324 323 322 321 321 321 322 323 323 323 323 322 322 323 325 321 319 320 320 322 323 321 317 317 316 315 315 318 317 316 316 311 311 311 311 310 307 309 305 305 304 303 303 304 303 303 304 304 303 303 304 305 305 305 305 306 307 306 305 304 303
334 333 330 330 329 330 331 331 330 329 329 327 326 325 324 327 328 327 326 326 325 325 325 325 325 324 324 324 323 323 322 322 322 322 323 326 326 325 323 322 319 319 320 319 320 315 315 316 316 316 315 316 315 312 313 314 316 312 307 308 305 304 303 304 303 304 303 302 302 300 300 300 300 302 305 307 305 305 306 305 306 306 305 304 304
332 331 331 330 330 329 329 329 326 327 326 325 327 326 324 325 325 325 324 324 323 323 323 323 325 325 325 324 325 323 323 322 323 323 323 324 323 326 325 323 320 318 318 318 318 317 316 316 316 316 316 315 316 314 314 311 310 313 310 304 301 300 299 300 305 303 299 299 299 300 300 300 301 303 304 305 305 305 305 305 305 303 304 304 304
331 330 329 329 328 328 327 327 326 324 325 325 325 325 324 324 324 323 323 323 321 321 322 322 321 324 323 323 323 323 322 324 323 322 322 323 323 327 328 325 323 321 318 317 317 318 320 317 317 317 317 319 313 313 312 312 309 308 303 299 297 292 290 294 297 299 294 299 300 300 301 301 302 303 304 305 306 306 306 306 303 303 303 305 305
328 329 329 328 327 328 328 327 326 326 326 326 324 323 323 323 322 322 322 321 320 320 321 322 321 320 321 319 320 321 321 320 321 321 321 322 323 324 323 323 322 321 319 319 317 317 316 316 316 316 315 317 315 314 312 309 310 307 301 298 290 288 288 288 289 290 297 299 297 297 297 298 300 302 304 305 307 307 306 303 303 303 304 304 305
329 328 326 326 327 327 327 326 324 324 327 324 323 320 320 321 320 320 319 319 319 320 320 319 318 318 319 321 319 321 319 320 321 320 320 321 322 322 322 322 320 320 319 319 318 318 318 316 316 318 315 312 312 312 313 310 308 303 296 291 289 289 289 291 297 288 290 292 295 296 296 298 300 301 303 305 305 305 305 304 304 304 304 304 305
Wind_Speed
17 15 14 15 15 15 15 14 15 13 13 12 12 12 11 11 12 11 10 11 11 11 11 11 11 10 11 10 10 10 10 9 9 8 7 7 6 6 6 7 6 5 4 6 6 6 6 5 3 3 2 3 4 3 4 3 3 5 5 5 4 4 4 5 6 7 4 4 4 3 4 4 4 3 4 4 4 5 7 7 7 7 7 7 8
16 15 15 15 16 16 16 15 14 13 14 13 13 13 12 12 11 10 12 11 11 12 12 11 11 12 11 11 10 10 10 10 10 9 9 8 8 7 6 8 7 6 6 6 7 6 5 5 5 4 3 3 3 4 3 4 4 4 4 4 4 5 5 5 5 5 7 3 4 3 4 4 6 3 4 4 4 4 6 6 6 6 7 6 6
17 14 15 15 16 15 15 15 15 15 16 14 16 15 14 12 11 12 11 12 11 12 13 13 13 13 12 12 11 11 11 11 10 10 10 10 10 9 8 8 9 8 8 8 7 5 5 5 5 4 4 5 5 5 4 4 4 4 4 4 4 3 3 3 2 4 6 6 3 4 3 3 4 4 4 4 4 4 5 5 6 6 6 7 7
18 15 15 16 16 15 15 14 17 18 18 15 17 17 15 13 12 13 12 11 12 12 13 13 13 13 13 13 13 12 13 12 10 10 11 11 11 10 9 8 8 9 9 9 7 6 7 6 6 6 5 5 5 5 5 5 4 5 5 4 4 4 4 3 3 3 2 6 5 5 5 6 5 5 5 5 6 5 5 4 4 5 4 5 5
17 17 18 19 18 16 17 16 17 18 18 16 18 18 16 15 13 14 13 13 13 13 12 13 12 13 14 14 14 14 14 14 13 12 11 10 11 11 10 9 9 9 9 8 7 7 7 7 7 6 6 6 5 4 4 6 5 5 4 4 4 4 3 2 2 2 4 6 6 4 4 5 5 6 3 6 6 5 4 5 6 6 5 5 5
18 18 19 18 17 18 17 16 18 19 17 17 18 17 16 14 15 14 14 14 13 14 14 13 13 14 14 14 14 14 13 14 14 13 12 12 11 10 10 10 10 9 9 8 8 7 7 7 6 6 6 6 5 5 5 6 4 4 4 4 3 2 2 2 3 3 4 5 5 6 4 6 6 5 4 5 6 6 6 5 5 5 5 5 5
16 17 19 19 16 17 17 17 16 17 15 14 14 14 15 16 17 16 15 16 16 15 14 14 13 13 14 14 14 14 13 13 13 13 12 12 12 11 11 10 10 9 9 9 8 7 7 6 6 7 7 6 5 5 4 4 4 4 5 4 3 3 2 2 2 3 4 5 4 5 6 5 5 6 4 5 6 6 7 6 6 5 6 6 6
15 16 16 15 15 17 16 16 15 14 14 13 13 13 13 13 13 12 13 15 16 16 15 15 13 13 14 14 13 12 12 12 12 12 11 11 10 11 11 10 10 9 8 9 8 8 8 8 9 8 7 6 6 5 4 4 4 4 3 3 3 3 3 3 3 3 4 5 6 6 5 6 5 5 5 4 4 5 4 4 6 5 6 3 3
15 16 16 15 14 15 14 13 13 13 13 13 13 12 12 11 10 11 12 13 12 13 13 13 12 12 12 13 13 11 11 11 11 11 10 10 10 11 11 10 10 9 9 9 8 7 7 8 7 8 8 10 11 8 7 6 5 5 5 4 3 3 3 3 3 4 5 5 7 6 6 5 5 5 6 5 5 6 3 3 5 6 5 5 5
14 15 16 14 13 14 14 12 12 12 12 13 13 12 11 10 10 11 11 12 11 10 10 11 12 12 11 12 11 10 9 9 11 15 12 11 12 10 10 10 9 9 9 9 8 9 8 8 5 8 10 12 13 12 12 12 9 5 3 2 3 3 3 3 5 5 5 6 7 7 6 6 5 4 5 4 4 4 4 3 4 4 4 6 5
14 15 15 14 14 14 13 13 12 12 12 11 11 11 11 9 8 9 8 10 11 10 9 11 13 12 11 11 12 10 10 10 16 19 20 17 13 10 10 9 9 9 8 8 7 8 6 1 3 11 12 9 8 13 14 11 7 4 2 3 3 3 4 5 5 4 5 6 6 6 6 6 6 5 4 5 4 2 3 4 5 6 5 6 7
16 14 15 14 14 15 13 13 12 12 11 11 11 10 9 8 8 7 7 9 10 9 9 9 11 11 11 12 11 11 11 13 17 17 17 18 14 9 8 8 8 8 7 8 7 4 2 4 8 9 7 5 4 5 6 6 5 4 4 5 6 7 8 6 5 5 5 6 7 7 6 6 5 5 5 4 3 4 4 5 5 6 6 6 6
15 14 14 14 14 14 13 13 13 12 11 10 9 9 9 9 8 8 8 7 6 9 8 7 7 9 10 12 12 11 9 12 17 19 18 16 15 11 7 6 6 7 7 4 2 1 4 7 8 7 3 6 4 4 4 5 5 4 2 3 5 7 7 9 10 9 7 8 7 8 6 6 6 4 2 3 3 4 4 5 5 5 5 7 6
14 14 13 14 14 14 13 13 12 11 10 9 9 9 10 10 8 7 6 6 7 8 8 7 5 7 8 9 10 9 8 12 19 19 17 16 15 10 6 6 5 5 5 4 4 5 6 7 8 1 4 2 1 2 4 3 3 3 3 3 3 6 9 13 15 17 15 9 7 7 5 3 6 4 3 3 3 4 5 6 5 6 7 8 9
13 13 13 13 13 13 13 12 12 11 10 10 9 9 9 8 8 6 5 5 5 6 6 6 5 5 7 8 8 10 7 15 17 18 18 17 14 8 6 5 5 4 3 3 4 7 8 4 6 6 3 3 4 6 4 5 4 3 3 3 3 4 5 7 7 7 7 7 9 10 9 7 7 5 3 1 3 4 4 6 7 8 9 9 9
14 13 14 13 13 13 13 13 11 11 11 10 9 9 8 8 7 6 6 5 5 5 5 5 6 5 5 7 8 9 7 16 16 18 17 15 16 10 8 6 6 5 5 5 7 8 6 5 4 7 4 6 7 10 10 6 6 5 5 5 5 6 8 10 10 6 5 6 9 10 9 6 3 4 3 3 3 4 5 6 6 7 8 7 9
14 13 14 13 13 13 12 12 11 11 10 9 9 8 7 7 7 6 6 5 4 5 6 6 5 6 6 7 7 8 7 17 19 18 17 16 11 7 8 7 6 6 6 6 7 9 5 5 5 6 7 6 8 11 11 6 5 5 5 5 6 7 7 5 8 11 11 14 8 5 4 4 6 7 7 9 7 7 5 5 9 9 8 9 8
13 13 14 13 12 12 11 11 11 10 9 9 9 8 7 6 6 6 6 6 6 6 6 6 6 5 6 7 8 7 6 9 15 17 17 16 14 11 9 8 7 7 7 7 7 6 6 12 8 6 6 7 10 12 9 6 4 4 4 6 7 6 5 6 6 5 6 4 4 5 6 6 7 11 12 13 15 8 6 9 11 8 8 8 9
14 14 13 12 12 11 11 10 11 11 10 9 8 8 8 6 5 5 5 5 4 5 6 5 4 4 5 6 7 9 8 10 15 16 17 17 13 9 8 7 7 6 6 7 6 6 6 8 12 9 7 7 10 6 6 7 5 5 4 4 5 6 4 3 3 4 1 2 2 4 5 7 8 8 9 16 19 15 10 12 9 6 8 8 9
14 13 13 12 11 11 10 10 10 11 11 10 8 8 7 6 6 6 5 5 5 6 5 5 6 6 8 9 7 7 9 8 13 16 16 18 18 10 7 7 7 7 7 7 4 5 6 5 6 8 11 13 14 14 11 5 4 3 2 4 5 4 3 3 4 4 3 4 5 4 6 5 6 6 8 11 11 10 13 10 8 8 9 10 9
13 13 13 13 12 11 10 10 11 10 9 8 8 8 7 7 7 6 7 6 5 4 6 6 6 5 7 9 8 9 9 9 12 18 17 17 18 14 8 8 7 6 5 6 7 7 6 6 6 11 12 12 11 10 8 5 2 2 3 4 1 1 3 3 4 6 5 5 5 6 6 7 7 6 4 4 6 5 2 6 8 9 7 5 6
13 13 13 13 13 12 11 10 10 9 9 8 8 7 6 7 6 6 5 5 5 5 4 3 4 5 4 7 7 8 10 12 9 16 17 17 17 16 9 8 7 6 6 6 5 5 6 6 6 9 14 12 10 10 8 6 3 2 2 5 4 1 2 3 4 4 5 4 4 5 4 4 4 5 7 6 5 4 5 6 6 7 7 6 7
14 14 13 13 11 11 11 11 10 8 9 9 8 7 6 7 7 7 5 5 5 6 6 5 5 5 6 6 6 4 3 8 11 13 17 18 18 17 15 10 3 3 5 4 5 4 2 3 4 7 12 11 11 9 8 6 4 4 3 1 1 1 5 4 3 3 4 4 4 5 5 4 4 5 4 4 4 4 4 5 6 7 7 8 9
14 13 12 12 12 11 11 10 9 9 10 9 9 9 8 7 7 7 5 4 5 5 6 6 7 8 8 6 3 4 4 3 5 13 15 17 15 15 15 9 2 1 2 4 4 2 3 4 6 11 11 11 11 9 8 8 5 6 7 6 6 6 4 3 4 4 4 5 5 6 5 4 4 3 3 3 3 4 5 6 6 6 6 7 8
14 14 13 12 12 11 9 8 9 9 10 10 9 9 9 9 8 6 5 5 6 7 7 8 8 7 7 6 5 5 4 4 3 3 8 12 13 12 10 13 9 2 2 4 4 4 8 13 14 12 12 10 10 9 7 10 11 8 9 9 9 4 5 5 4 3 4 5 5 3 3 3 5 4 3 3 5 6 6 6 6 6 7 7 7
14 14 13 12 12 11 11 10 9 10 10 9 10 10 10 9 8 6 5 6 6 7 7 7 7 6 5 5 6 7 6 4 4 4 5 6 6 8 10 7 7 7 8 7 11 13 14 13 12 11 9 8 6 5 6 7 11 12 10 8 4 4 3 3 4 5 6 4 2 2 3 4 5 3 4 6 6 7 6 6 6 6 5 5 6
13 12 12 11 11 10 10 8 7 7 7 7 7 7 9 8 8 7 7 7 7 7 7 7 6 6 6 6 6 7 7 5 5 5 4 5 5 6 6 6 8 10 7 5 8 7 9 8 7 9 7 11 9 5 4 6 5 4 4 4 4 5 5 5 6 6 5 4 4 3 3 4 3 3 5 6 6 5 4 5 5 6 5 5 6
13 12 11 9 9 9 8 10 9 7 6 6 7 7 7 7 7 9 8 8 8 7 7 7 6 6 6 6 6 6 7 6 6 6 6 6 6 6 6 7 6 5 6 5 5 7 5 6 6 6 5 5 5 3 5 5 5 5 5 6 6 6 9 11 9 6 4 5 4 3 2 1 2 4 5 5 5 6 4 5 5 6 5 6 7
13 14 12 10 9 8 8 8 8 7 7 8 9 8 4 1 4 6 5 4 2 5 6 4 5 5 6 6 6 5 5 8 8 9 8 9 9 9 8 8 8 7 7 9 8 7 6 6 6 7 7 7 6 6 6 6 6 7 7 7 7 7 7 6 7 7 7 5 3 4 2 1 4 4 5 5 5 5 5 5 4 6 7 7 8
13 13 11 11 12 10 9 9 8 8 8 7 7 7 11 11 8 6 5 5 5 6 6 4 4 7 6 4 2 5 5 3 9 16 13 13 11 10 8 9 9 8 9 9 4 5 8 6 7 8 8 7 6 6 7 6 6 7 7 8 7 7 5 4 4 3 4 3 2 1 3 3 4 5 4 5 6 5 5 5 6 7 6 6 7
11 12 11 11 10 9 9 9 9 7 7 8 7 8 6 9 14 13 9 4 9 12 12 10 8 5 4 4 5 10 5 10 14 15 13 11 10 9 8 6 7 5 11 8 5 6 7 8 8 5 3 4 5 5 6 8 7 6 6 8 8 8 7 3 3 3 4 3 2 1 2 4 4 4 6 6 5 5 6 6 6 6 6 6 6
10 11 11 11 9 8 8 9 9 8 8 7 7 7 7 7 6 12 12 10 12 12 11 11 9 8 11 9 7 4 4 6 14 14 14 12 11 11 11 10 9 9 7 5 4 5 4 3 3 4 5 6 4 3 6 5 2 3 3 3 1 1 4 5 0 3 2 2 2 3 3 3 4 5 5 4 4 6 6 5 5 6 6 5 5
11 11 10 11 9 7 8 9 8 9 9 9 7 6 7 6 7 5 6 10 12 13 13 12 11 10 9 7 7 8 10 9 14 15 15 15 14 13 12 11 9 7 7 4 4 5 3 4 5 4 4 5 6 3 2 4 5 5 3 3 3 4 5 4 4 3 1 1 2 3 4 5 5 4 3 3 5 6 6 6 5 5 6 5 4
8 9 11 12 9 9 10 9 8 7 7 8 8 7 6 6 7 8 7 5 6 9 12 13 12 11 12 11 12 13 12 12 13 14 14 14 14 13 12 7 6 3 2 4 5 5 3 3 4 4 4 3 4 4 2 2 3 4 4 4 2 1 1 3 2 2 2 3 3 2 3 4 4 4 4 5 5 5 5 5 6 6 4 5 6
9 12 17 12 9 11 11 9 8 7 6 7 7 7 6 6 6 8 8 8 7 6 6 5 9 12 7 7 9 10 11 11 12 12 13 13 13 13 13 8 5 3 2 2 2 2 3 3 3 3 3 3 4 4 3 3 2 3 4 4 5 4 5 5 5 5 4 3 4 3 3 4 5 5 5 5 5 5 5 5 5 4 5 6 6
9 9 8 9 8 8 9 9 9 9 8 8 8 7 6 6 7 7 7 8 8 8 7 5 4 6 12 12 10 8 8 9 10 10 10 11 13 12 7 6 6 5 4 4 3 3 3 3 3 1 4 3 4 4 4 4 3 3 3 2 2 3 4 5 5 5 5 4 5 5 5 5 5 4 4 4 4 5 5 5 5 5 6 6 5
8 8 8 7 6 7 8 8 9 8 8 8 6 7 7 7 7 7 6 7 7 8 8 7 7 6 6 6 8 9 8 9 8 8 6 4 1 3 3 4 4 4 3 4 3 3 3 1 3 2 2 2 1 2 4 4 4 3 2 2 2 2 1 1 2 3 4 5 5 4 4 5 4 3 4 4 4 5 5 5 5 6 6 8 8
7 6 5 5 4 6 5 5 8 12 9 7 6 7 7 6 6 7 7 7 9 8 8 7 7 7 7 5 5 4 5 6 8 6 3 2 2 3 3 2 2 2 6 5 5 4 2 2 2 3 2 2 1 3 3 3 3 3 3 6 4 1 2 1 2 3 4 5 5 6 5 2 3 4 3 4 5 5 4 5 6 7 6 7 6
4 6 9 7 5 6 6 6 7 7 6 5 4 4 5 5 5 6 7 9 9 8 8 8 7 7 7 8 7 7 8 6 5 5 5 5 4 4 3 3 2 3 2 4 3 2 2 3 3 2 1 1 1 3 2 1 2 3 3 2 3 3 4 3 4 3 4 5 5 1 3 4 4 3 3 4 5 4 5 7 7 7 7 6 6
6 5 6 7 5 4 4 6 5 6 5 6 6 5 5 5 6 6 7 7 7 8 8 8 8 8 9 9 9 9 7 7 6 6 6 5 5 4 3 3 3 3 1 2 3 4 2 2 2 2 2 2 1 1 2 1 2 2 2 3 5 2 5 5 5 5 4 2 2 2 4 3 3 3 4 4 5 5 6 6 6 6 6 6 6
4 5 4 4 4 5 5 6 5 5 6 5 5 6 6 5 5 6 6 6 4 5 7 7 7 8 9 11 14 12 6 6 6 6 5 5 4 4 4 4 5 3 2 2 2 2 2 2 2 2 3 5 3 3 2 3 3 4 6 3 3 2 4 4 4 4 3 1 2 3 3 2 3 4 4 4 5 6 5 5 6 6 6 6 7
5 4 4 3 5 6 5 5 5 6 5 5 6 6 5 4 4 5 6 4 6 6 5 5 6 7 11 18 16 14 5 5 5 5 6 6 6 6 5 4 2 3 3 3 3 2 1 1 2 2 0 3 3 4 2 1 1 3 3 5 3 3 4 3 3 3 3 2 3 2 3 3 4 4 5 5 5 5 5 6 6 6 5 6 7
6 5 4 4 5 5 3 3 3 4 5 5 5 3 2 2 4 4 6 5 4 5 5 5 6 6 8 13 14 13 5 4 5 7 8 7 5 4 4 4 2 3 2 3 3 2 1 2 2 2 2 1 3 3 3 5 6 5 4 3 3 3 3 3 3 3 3 3 4 4 3 4 4 4 4 5 5 5 5 6 6 5 5 6 6
6 5 4 4 4 1 1 6 3 3 3 5 7 5 6 5 4 3 4 4 5 5 7 6 6 7 6 6 6 5 4 4 3 3 3 4 4 4 5 4 3 3 3 2 2 2 2 2 2 5 5 2 1 2 3 5 1 2 3 2 2 3 3 3 3 2 4 4 3 3 4 4 4 4 4 5 5 6 6 6 5 6 6 5 6
4 3 5 5 6 5 4 5 5 4 6 5 5 5 4 3 4 3 3 5 4 5 7 7 7 7 7 6 6 7 6 5 4 3 2 4 4 3 4 3 4 4 3 3 4 4 3 2 1 1 3 1 1 1 1 4 4 1 2 2 2 3 3 3 4 4 3 3 3 4 4 4 5 5 5 5 5 5 5 5 6 6 5 5 6
2 3 4 2 5 6 6 6 6 6 5 5 5 5 4 4 4 4 3 3 3 3 5 8 7 7 7 6 6 6 6 5 5 5 4 4 4 4 3 5 5 4 3 1 2 2 4 4 2 2 2 3 2 2 3 5 3 2 0 1 1 2 4 5 5 5 4 4 4 4 5 5 5 5 7 6 5 5 5 6 6 5 5 6 7
5 3 5 6 6 5 6 6 5 5 4 5 4 4 4 3 3 3 4 4 3 3 2 5 8 6 6 6 6 5 5 4 5 5 4 2 2 3 4 5 6 5 3 3 3 7 5 3 2 1 1 2 3 7 3 2 1 1 4 3 0 5 3 3 3 4 4 4 5 4 4 5 5 6 7 6 5 5 6 6 5 5 5 6 7
4 5 6 6 6 6 6 5 5 5 4 4 4 4 4 5 4 3 4 3 4 3 3 3 5 5 3 3 2 1 2 3 4 3 2 2 2 2 3 4 4 5 5 5 4 4 5 4 3 3 2 4 3 2 3 3 1 2 3 6 5 4 5 3 3 4 3 3 4 4 4 5 5 6 6 6 6 6 6 5 5 5 6 7 7
5 6 7 7 6 6 5 5 5 5 5 5 5 4 5 4 3 3 3 4 4 4 4 3 5 7 7 6 5 5 4 3 3 2 2 3 3 2 2 2 3 4 5 4 4 3 4 3 2 1 1 2 5 3 2 2 1 2 6 4 7 10 10 8 4 3 3 3 3 4 5 5 6 5 6 6 6 5 4 4 4 6 7 7 7
3 4 4 4 5 5 4 4 5 3 3 3 6 6 4 5 7 6 6 5 4 2 1 1 2 3 4 6 7 6 6 6 5 4 4 3 2 2 3 3 3 3 3 3 3 4 5 5 4 4 3 2 1 2 2 3 4 4 7 6 10 11 10 8 6 3 2 2 3 4 5 5 6 6 6 6 6 5 4 4 5 6 6 7 6
2 2 3 4 3 3 3 2 3 3 2 2 3 7 9 7 5 4 4 4 2 2 3 2 2 1 0 1 2 3 5 6 6 4 4 5 5 4 3 3 4 4 4 4 4 3 4 5 4 2 3 4 2 2 2 4 6 8 10 13 12 10 10 8 4 4 3 1 3 4 5 5 6 6 6 5 4 4 4 5 6 6 6 6 4
Wind_Direction
186 186 184 186 184 184 186 187 189 188 188 189 189 190 193 192 190 191 176 185 179 184 180 178 180 182 185 185 184 182 182 188 183 183 191 181 184 190 190 188 194 199 194 190 196 205 209 211 210 189 170 190 193 205 228 214 198 205 206 204 212 213 218 225 249 268 264 243 272 281 293 295 278 238 242 229 225 218 213 223 230 239 246 253 258
186 183 184 184 186 185 187 187 188 188 190 191 194 192 191 195 189 188 183 184 182 184 181 180 179 182 185 185 186 180 182 187 183 182 185 185 188 193 195 183 192 199 204 209 204 209 197 192 191 199 203 221 218 220 223 223 215 220 214 208 211 222 203 221 233 244 272 253 241 251 268 262 272 236 248 252 252 230 226 222 220 223 233 237 240
186 180 183 184 186 184 184 186 186 188 191 192 198 197 194 192 188 190 187 185 184 185 182 184 182 182 186 185 184 181 182 187 186 184 184 185 190 192 195 187 190 199 202 209 209 203 205 195 199 203 206 211 208 214 222 220 216 223 230 223 228 224 229 220 254 271 281 278 256 267 255 266 280 302 302 286 276 266 259 241 238 236 232 231 236
184 179 182 185 185 182 185 186 188 190 194 195 198 200 197 192 189 192 193 187 186 186 184 188 185 184 185 184 185 182 181 185 187 189 185 186 189 192 190 190 194 199 201 203 204 204 201 205 213 216 216 217 207 207 210 216 217 215 222 223 222 227 228 225 222 252 280 295 295 297 307 305 291 280 282 279 275 267 255 266 262 259 249 236 236
184 181 183 186 185 185 186 185 188 191 194 195 199 199 198 195 192 194 194 194 190 186 186 188 188 186 188 185 186 186 183 182 186 189 187 188 191 191 188 190 199 201 200 199 205 207 205 209 212 211 218 219 214 209 205 217 213 215 219 222 216 217 218 214 237 246 268 279 290 290 296 290 289 285 293 299 290 281 274 267 270 267 262 258 257
183 182 183 184 184 185 187 188 192 193 194 197 199 199 198 194 194 194 194 197 192 191 188 189 189 190 190 188 188 189 183 183 185 187 187 187 189 191 188 191 197 202 202 205 209 209 207 208 210 217 225 218 210 207 216 223 215 212 225 225 223 219 222 231 237 238 242 256 272 288 282 273 274 264 265 266 276 279 277 270 268 266 267 268 264
179 179 183 185 182 185 186 189 193 193 193 197 198 197 200 201 199 197 194 199 200 196 192 191 191 190 191 190 191 190 186 183 183 185 185 185 187 189 189 190 195 199 204 207 210 210 216 216 218 217 221 218 217 215 212 212 210 225 224 226 226 227 222 233 238 255 258 264 258 243 260 251 246 269 249 237 245 252 271 296 294 285 269 250 260
178 177 182 183 183 184 187 190 191 192 193 194 196 198 200 201 199 191 190 199 204 199 196 191 190 191 191 192 192 189 187 185 184 186 185 181 184 191 191 190 193 198 201 209 212 215 214 216 220 219 217 213 210 214 214 222 217 226 223 228 234 242 247 246 251 255 264 271 268 277 270 275 270 255 257 251 257 252 222 222 251 272 275 257 255
179 176 178 183 181 182 185 188 192 192 190 192 195 197 197 198 192 185 188 197 204 201 198 194 189 190 191 192 192 188 186 187 186 184 178 184 188 194 191 191 192 195 203 210 213 222 227 226 226 222 209 204 208 206 208 213 216 219 224 217 212 219 248 258 269 271 272 272 277 273 275 272 269 282 284 277 264 265 239 225 248 252 264 276 266
179 175 177 180 177 178 182 186 190 190 189 190 194 195 196 194 189 188 187 193 196 198 199 186 189 186 188 191 190 185 185 188 187 169 179 193 191 189 188 190 191 194 202 208 211 218 226 230 254 277 256 220 203 206 214 218 212 220 231 218 216 235 245 270 270 268 272 276 278 281 277 273 275 276 278 278 284 286 280 280 283 281 275 265 263
177 175 176 175 173 175 179 185 185 188 188 188 189 192 193 189 187 191 189 184 193 197 197 185 186 184 187 190 191 186 187 193 173 167 185 191 190 187 185 187 191 196 201 202 212 218 209 124 300 257 246 242 214 212 214 206 196 193 191 209 225 223 243 249 256 258 264 272 276 275 273 280 282 285 285 293 293 333 327 312 300 300 293 297 293
175 174 172 170 170 173 178 180 181 184 184 187 186 187 185 184 183 186 194 187 189 196 199 196 192 183 178 186 187 187 192 186 169 172 185 191 186 185 183 186 191 197 201 214 210 187 128 224 229 241 234 211 170 190 170 148 149 182 216 244 248 233 223 225 245 259 257 262 263 263 268 271 285 288 291 308 334 327 306 300 290 289 288 285 285
172 171 168 170 170 171 175 178 179 180 183 183 181 178 182 183 184 190 201 198 188 197 197 193 187 184 181 183 186 187 192 154 168 179 188 185 185 182 181 180 190 190 198 175 129 201 205 226 247 251 290 263 232 140 159 168 187 189 215 242 251 252 250 242 236 240 248 246 258 262 257 264 266 271 301 312 323 296 298 291 292 293 294 290 286
169 169 165 169 168 170 174 175 176 178 175 175 176 178 183 186 183 185 190 192 193 197 197 196 182 181 178 178 180 174 178 165 175 180 182 181 181 173 172 185 175 178 186 190 192 228 231 222 236 105 111 127 247 238 172 198 177 182 208 224 242 256 243 234 230 233 235 244 251 262 264 276 274 280 295 304 308 301 304 290 294 291 291 283 285
166 167 167 167 167 169 172 170 173 172 169 172 176 182 180 171 174 169 168 184 181 183 182 178 167 178 177 170 166 168 174 171 176 173 176 178 169 164 185 168 174 184 181 176 221 238 240 213 107 149 197 154 194 213 201 190 187 208 244 276 276 268 273 276 250 218 217 217 232 245 257 256 260 267 268 249 273 274 275 282 277 272 272 271 269
165 168 169 168 168 168 168 170 169 167 166 169 172 171 171 175 165 157 174 186 186 155 158 157 156 143 152 161 166 172 155 166 170 175 174 171 173 184 195 188 191 200 207 198 218 246 232 164 154 118 205 225 231 227 211 186 181 196 212 235 254 264 265 254 263 272 237 201 213 227 233 240 200 215 226 254 266 269 270 261 259 254 257 264 270
169 168 169 166 167 168 168 167 161 160 163 163 164 166 166 164 157 156 180 195 184 150 144 141 137 149 160 178 170 168 153 179 176 172 170 169 164 188 200 204 206 204 216 221 213 234 199 167 169 169 187 194 229 233 212 200 215 214 219 229 235 247 253 270 260 243 240 241 220 172 202 225 249 268 267 251 240 238 241 256 261 262 264 265 263
168 165 166 166 164 166 165 160 154 156 155 162 161 165 165 168 168 152 180 186 185 151 131 126 138 151 168 182 178 151 149 166 168 168 171 171 176 187 197 199 204 207 214 223 225 210 178 187 182 182 177 208 197 190 178 185 222 237 225 240 248 248 256 264 269 255 246 3 317 270 260 256 242 246 251 255 252 230 201 238 247 252 261 267 275
166 165 163 163 160 163 157 157 152 154 160 162 165 161 165 156 146 135 172 175 170 137 137 135 143 134 162 181 157 145 154 176 185 176 173 177 182 193 193 196 206 210 210 226 215 177 178 191 194 194 191 186 148 143 194 201 212 231 241 246 251 255 266 347 349 348 8 264 256 253 257 251 249 245 244 244 246 240 220 236 252 253 259 267 275
160 157 162 159 156 157 154 155 153 158 159 157 157 150 146 154 145 146 148 152 136 135 134 141 149 175 194 195 187 178 172 172 187 185 183 183 185 189 192 198 210 216 214 214 173 187 180 183 183 178 130 151 161 178 190 187 233 240 263 255 251 251 23 331 309 322 311 287 282 282 275 271 266 254 244 241 242 227 239 236 232 239 249 254 265
153 155 152 153 151 150 148 148 151 152 152 152 145 142 149 153 138 142 141 135 120 124 147 161 175 178 191 191 199 200 203 187 183 189 189 186 191 193 197 204 209 214 220 216 196 194 182 192 183 195 161 159 163 163 158 162 180 261 233 258 280 357 315 289 296 300 289 279 270 264 260 252 246 251 280 300 296 296 259 207 219 231 254 292 313
145 142 145 145 147 149 146 142 148 153 147 139 140 137 136 131 132 135 130 119 128 134 134 170 167 182 210 188 201 200 204 206 171 194 189 189 191 197 200 204 204 210 227 229 207 204 192 185 210 180 170 160 149 146 144 156 164 246 180 105 121 16 314 287 273 256 260 281 281 278 287 297 306 304 282 280 305 322 324 325 336 348 338 328 318
135 134 136 139 139 138 135 140 146 142 137 136 136 134 123 120 124 122 121 129 143 152 162 176 186 191 203 208 212 204 147 195 177 180 194 192 193 195 203 204 81 220 234 211 202 188 161 131 69 122 147 136 138 143 146 164 173 229 219 203 120 270 262 239 259 283 271 269 272 269 264 266 276 279 300 330 318 319 346 338 334 321 312 300 286
129 127 126 124 128 133 137 138 137 134 136 137 132 123 124 125 122 131 135 144 155 167 168 182 198 203 203 183 128 130 143 105 183 181 185 193 191 193 205 217 344 221 256 215 186 172 143 103 122 118 122 129 136 149 161 181 216 191 191 195 205 206 214 226 229 239 254 259 261 257 263 272 280 308 314 325 334 345 329 314 301 289 279 274 268
123 125 127 128 128 132 132 130 126 129 133 134 133 133 130 131 132 135 152 168 184 187 187 192 204 201 187 151 157 152 136 135 103 93 142 165 172 173 173 198 217 117 154 70 69 79 97 112 120 127 133 145 154 161 188 210 221 208 192 193 206 214 193 215 234 243 256 253 257 283 313 338 335 315 335 344 324 315 303 289 276 270 270 267 270
124 127 128 130 133 134 130 123 128 133 133 133 136 138 133 138 142 151 168 195 197 191 191 190 197 193 163 152 162 163 151 132 118 118 129 146 153 166 179 172 102 81 87 102 109 111 114 122 128 132 140 150 165 189 207 203 205 206 207 203 213 228 229 222 232 230 238 247 281 306 317 312 295 322 337 316 296 282 272 271 274 278 286 297 303
122 123 123 127 128 131 121 119 118 114 114 118 121 123 132 140 148 160 182 198 196 196 195 200 188 180 168 173 169 159 160 143 147 148 145 140 134 129 131 125 121 114 113 113 109 108 127 138 161 173 187 190 202 234 218 151 163 199 217 210 229 234 230 222 224 234 208 204 218 231 235 252 278 313 291 279 275 274 268 274 283 289 296 291 289
119 118 114 110 109 109 111 114 115 120 126 130 141 143 146 151 159 174 192 196 193 194 202 199 174 168 171 179 163 156 164 165 166 169 171 166 150 148 157 157 162 179 146 149 145 144 151 166 170 197 190 179 208 221 212 206 208 193 207 213 220 226 232 233 229 222 219 214 212 226 246 256 297 282 281 283 290 284 276 278 279 284 284 287 284
113 116 116 114 111 111 118 118 120 118 84 60 44 32 22 29 117 83 38 25 2 214 212 148 151 155 172 165 158 161 180 186 189 170 172 167 158 161 170 176 177 176 178 156 171 164 158 169 189 201 200 200 197 201 204 207 215 213 215 219 218 216 225 223 223 222 227 231 207 192 200 318 291 285 285 289 282 282 277 283 279 277 280 270 269
121 126 130 136 140 140 142 142 138 133 119 114 100 80 62 58 42 94 94 43 60 42 79 140 154 160 146 128 109 179 198 210 129 143 147 160 161 158 165 167 170 174 178 178 188 205 181 199 211 214 210 207 202 200 207 209 212 215 217 218 221 228 215 210 224 237 248 169 148 88 26 335 287 285 290 289 283 274 284 285 278 271 273 277 280
129 132 141 145 143 144 149 145 143 150 130 127 124 121 111 53 47 48 59 54 55 56 57 65 58 65 121 139 58 27 51 120 128 133 138 138 134 126 125 138 154 190 173 179 215 230 186 207 224 241 280 256 207 204 215 218 218 209 200 197 215 231 228 219 52 68 57 59 34 26 278 269 295 305 291 276 277 292 290 273 269 280 278 284 290
139 146 146 136 135 145 146 138 148 145 126 133 137 140 126 118 74 38 37 46 49 54 56 49 53 94 117 126 124 57 54 119 128 127 124 121 117 110 103 107 116 125 151 144 208 224 254 291 300 274 253 262 281 268 270 278 205 206 230 262 167 103 79 93 83 43 31 4 343 305 313 309 285 272 267 280 298 291 285 291 291 287 285 285 289
148 145 125 133 150 156 131 133 141 144 139 142 148 154 150 142 121 116 50 48 62 58 47 43 44 48 67 97 127 129 139 140 125 123 123 123 116 111 107 104 105 104 111 141 218 226 234 240 262 260 249 245 250 268 346 359 5 352 346 30 31 31 97 141 138 145 221 273 329 315 279 262 263 273 293 312 301 293 291 290 292 292 291 299 312
125 121 138 148 146 126 129 138 145 147 153 151 152 163 171 157 152 138 130 135 91 64 54 46 41 54 55 68 96 112 123 126 121 121 123 122 122 121 109 92 71 52 117 198 216 231 230 249 250 255 287 319 326 339 37 42 17 352 354 351 352 3 139 150 115 59 360 301 258 264 320 312 309 322 307 288 281 285 293 301 300 297 309 318 312
107 129 140 141 133 136 143 146 147 152 156 155 153 166 177 174 148 144 159 159 157 147 145 84 38 28 60 78 78 100 117 120 123 128 128 132 130 129 114 111 120 149 179 229 243 266 289 309 321 356 18 21 26 29 2 353 11 2 20 16 354 350 18 10 14 357 353 352 359 328 319 320 315 285 276 285 291 297 303 301 298 309 320 315 308
126 131 136 133 137 141 149 162 158 155 155 152 166 171 175 166 173 171 170 164 155 145 127 99 83 71 72 66 73 83 95 106 118 126 139 146 154 145 147 174 173 175 173 171 192 199 224 230 249 316 38 29 34 7 9 347 360 26 63 44 26 15 15 11 1 26 27 343 312 307 292 272 263 282 302 295 304 309 309 304 315 325 311 302 303
128 139 148 162 165 148 156 157 143 147 149 161 174 168 172 170 170 161 163 168 142 130 120 131 130 111 92 83 85 76 80 92 95 95 96 110 345 296 246 184 187 161 177 164 192 197 210 167 59 12 3 9 14 22 13 3 14 7 16 65 80 72 65 46 10 353 322 311 297 283 272 269 285 307 308 308 311 309 302 318 323 310 300 300 303
139 151 161 154 139 130 137 102 114 139 153 166 181 173 178 171 167 153 160 140 127 130 141 152 151 142 144 139 160 136 107 110 107 87 80 71 225 230 263 290 304 211 173 178 187 187 153 99 50 41 22 297 119 72 33 6 2 1 17 12 1 30 70 10 284 237 243 270 273 261 254 301 327 313 318 320 315 304 320 326 315 305 307 311 315
129 128 130 134 119 124 124 124 125 141 144 166 162 166 149 167 169 162 139 131 137 142 150 154 160 153 143 146 147 137 141 151 164 155 164 180 194 212 238 243 235 262 176 154 172 124 94 88 99 132 165 286 42 109 164 78 15 358 31 15 329 319 300 298 279 247 204 223 235 290 358 321 304 313 330 321 309 322 325 307 300 308 313 317 314
121 120 110 121 126 123 126 125 142 149 163 177 166 171 160 173 167 151 143 159 158 147 152 166 166 141 144 155 152 167 173 163 168 162 171 175 181 193 202 229 243 253 157 124 112 94 86 110 130 201 113 75 162 157 91 186 245 322 344 263 241 304 360 341 296 286 289 313 358 341 297 303 331 350 327 309 313 314 296 297 306 311 312 312 317
118 113 122 131 133 135 130 141 164 176 174 179 155 171 169 161 158 146 150 158 151 148 150 174 142 139 154 162 168 178 165 162 167 164 163 172 174 189 199 216 229 199 135 118 100 120 155 198 175 142 164 184 173 137 165 205 204 197 227 248 55 14 265 253 256 264 268 302 357 311 306 346 1 337 305 300 294 287 295 309 314 311 315 321 321
132 134 149 129 122 143 161 171 174 173 165 158 168 163 151 151 161 145 142 169 156 155 156 159 127 138 146 155 169 193 198 167 170 164 170 179 190 190 186 211 230 110 148 145 117 99 143 145 256 254 345 112 155 196 207 226 345 312 10 44 37 325 299 303 315 342 8 336 292 325 15 350 305 280 288 299 299 308 319 317 307 308 317 323 316
128 150 163 156 169 150 171 187 134 153 155 98 25 350 34 129 151 149 149 160 163 150 138 114 108 122 148 163 175 187 218 195 203 183 183 180 184 155 154 195 172 154 132 96 108 126 90 31 355 302 282 4 357 14 41 29 35 38 51 29 8 309 311 316 331 336 337 357 10 8 336 303 306 319 314 299 307 322 320 304 307 318 322 317 321
144 168 163 153 167 168 104 115 118 105 67 113 151 163 151 190 160 154 151 151 150 152 126 128 126 134 141 161 170 187 220 217 242 240 164 153 176 164 165 173 147 98 103 131 151 131 103 58 345 14 355 341 82 67 43 86 48 38 32 29 293 274 282 291 281 328 20 9 348 327 310 317 312 310 306 313 325 317 304 308 317 315 317 321 325
143 183 158 166 117 108 74 63 59 67 110 118 141 135 154 154 143 159 149 159 164 161 136 141 138 142 148 161 176 191 206 212 206 244 219 179 174 182 174 159 115 146 162 167 127 112 136 141 113 290 289 344 42 92 41 92 93 20 356 346 341 323 328 5 32 24 10 1 341 329 321 314 318 316 314 317 310 302 309 317 314 309 319 329 322
148 143 117 104 120 127 127 143 137 146 147 146 140 150 154 157 154 169 173 175 173 169 158 139 146 149 156 163 181 192 205 202 200 208 217 177 189 186 180 123 132 143 184 158 97 95 73 57 20 343 342 358 20 13 96 92 86 98 237 300 281 314 32 43 38 19 6 354 341 330 322 323 318 317 307 296 304 316 307 306 302 317 328 324 313
154 142 140 136 126 132 125 128 145 141 147 138 152 152 152 135 144 160 150 162 150 148 160 144 149 166 168 179 194 189 186 210 201 208 202 200 210 170 157 149 154 163 140 120 135 116 136 147 179 139 254 344 56 76 58 69 69 153 177 189 116 70 66 47 41 20 15 2 345 329 321 314 303 293 299 310 323 308 309 304 314 328 332 319 305
130 123 117 116 117 123 138 146 148 152 147 154 158 151 138 140 149 155 158 139 127 170 201 175 130 155 169 169 182 104 138 191 222 214 173 194 226 213 143 142 148 138 141 152 164 163 159 166 151 170 175 182 195 154 116 112 70 277 55 73 83 94 77 62 53 53 27 341 313 298 294 291 295 295 299 308 300 297 299 315 328 331 320 309 302
145 138 140 131 126 139 163 161 151 167 168 163 128 150 129 130 131 157 161 159 167 188 208 188 168 169 169 176 180 181 172 177 193 211 219 216 215 195 140 167 178 159 151 154 166 165 147 141 152 168 232 115 133 151 125 121 169 194 106 109 106 107 93 85 88 65 340 301 301 301 298 295 294 299 299 290 291 293 305 329 335 320 303 301 298
129 126 142 140 147 150 164 152 174 191 154 165 151 145 146 190 198 182 175 180 202 206 84 104 187 180 161 166 165 173 165 182 185 194 190 194 209 206 186 171 171 183 184 169 167 149 154 169 173 186 164 141 124 121 174 168 186 113 114 125 134 124 118 113 116 103 351 332 321 309 299 293 291 285 289 291 293 311 332 338 319 302 295 299 302
116 116 142 147 174 137 123 124 159 163 152 121 180 166 188 197 188 183 154 163 169 158 184 207 249 265 241 100 129 156 164 170 180 204 191 170 178 198 201 200 188 167 178 178 191 174 172 153 164 140 133 136 164 170 230 185 115 120 136 142 146 142 151 151 149 164 186 316 290 293 288 287 292 291 289 295 320 316 322 315 299 291 298 297 309